Location: Unspecified
(0.0000°N, 0.0000°E)
Time: 17:07:09
(UTC+02:00)

Tiangong 1 - Visible Passes

Search period start: 28 August 2014 00:00
Search period end: 07 September 2014 00:00
Orbit: 369 x 374 km, 42.8° (Epoch: 26 August)

Date Brightness Start Highest point End Pass type
(mag) Time Alt. Az. Time Alt. Az. Time Alt. Az.
28 Aug 2.3 07:01:32 10° NNW 07:04:26 40° NE 07:07:20 10° ESE visible
29 Aug 4.5 06:01:40 12° ENE 06:01:40 12° ENE 06:02:09 10° ENE visible
29 Aug 2.4 07:34:26 10° W 07:36:55 22° SW 07:39:24 10° S visible
30 Aug 2.4 06:34:17 33° SE 06:34:17 33° SE 06:36:08 10° SE visible
